Flag for Finland Weather past 2 weeks in Helsinki, Finland

Now
34 °F

Overcast.


Feels Like: 30 °F
Forecast: 31 / 35 °F
Wind: 5 mph from North

Location: Helsinki Malmi Airport

Current Time: Oct 21, 2014 at 7:13:20 AM

Latest Report: Oct 21, 2014 at 6:50 AM


Visibility: N/A

Pressure: 29.68 "Hg

Humidity: 87%

Dew point: 30 °F

Location of HelsinkiLocation

Historic Weather in Helsinki — Graph

°F

Helsinki temperature yesterday

Maximum temperature yesterday: 48 °F (at 12:20 AM)
Minimum temperature yesterday: 37 °F (at 11:50 PM)
Average temperature yesterday: 43 °F

Past Weeks' High & Low Weather Summary

 TemperatureHumidityPressure
High55 °F (Oct 10, 5:20 AM)100% (Oct 9, 4:20 AM)30.69 "Hg (Oct 9, 4:20 AM)
Low19 °F (Oct 18, 7:50 AM)48% (Oct 17, 2:50 PM)29.30 "Hg (Oct 20, 7:50 AM)
Average44 °F85%29.98 "Hg
* Reported Oct 6 5:20 AM — Oct 21 5:50 AM, Helsinki, Weather by CustomWeather, © 2014

Note: Actual official high and low records may vary slightly from our data, if they occured in-between our weather recording intervals... More about our weather records

Advertising

Helsinki weather history for previous 24 hours

 ConditionsComfort  
Time TempWeatherWind HumidityBarometerVisibility
5:50 AM
Oct 21
34 °FOvercast.3 mph87%29.65 "HgN/A
5:20 AM34 °FLow clouds.6 mph93%29.65 "HgN/A
4:50 AM34 °FSprinkles. Overcast.5 mph93%29.65 "HgN/A
4:20 AM34 °FLight rain. Low clouds.5 mph93%29.65 "HgN/A
3:50 AM34 °FMostly cloudy.3 mph93%29.62 "HgN/A
3:20 AM36 °FOvercast.2 mph81%29.62 "HgN/A
2:50 AM36 °FOvercast.5 mph81%29.62 "HgN/A
2:20 AM36 °FOvercast.5 mph87%29.59 "HgN/A
1:50 AM36 °FOvercast.5 mph87%29.59 "HgN/A
1:20 AM36 °FOvercast.7 mph87%29.56 "HgN/A
12:50 AM37 °FOvercast.6 mph87%29.56 "HgN/A
12:20 AM37 °FOvercast.6 mph87%29.53 "HgN/A
11:50 PM
Oct 20
37 °FLow clouds.7 mph93%29.53 "HgN/A
11:20 PM39 °FLow clouds.5 mph93%29.50 "Hg4 mi
10:50 PM39 °FLow clouds.6 mph93%29.50 "HgN/A
10:20 PM39 °FLow clouds.3 mph93%29.47 "HgN/A
9:50 PM41 °FOvercast.5 mph87%29.47 "HgN/A
9:20 PM41 °FSprinkles. Low clouds.7 mph87%29.45 "HgN/A
8:50 PM41 °FPassing clouds.6 mph93%29.45 "HgN/A
8:20 PM41 °FPassing clouds.5 mph93%29.42 "HgN/A
7:50 PM41 °FPassing clouds.5 mph93%29.42 "HgN/A
7:20 PM41 °FPassing clouds.3 mph93%29.42 "HgN/A
6:50 PM41 °FPartly sunny.3 mph93%29.39 "HgN/A
6:20 PM41 °FPartly sunny.3 mph87%29.39 "HgN/A
5:50 PM41 °FPartly sunny.5 mph87%29.39 "HgN/A
5:20 PM41 °FPartly sunny.6 mph87%29.39 "HgN/A
4:50 PM41 °FPartly sunny.9 mph93%29.36 "HgN/A
4:20 PM43 °FPartly sunny.6 mph87%29.36 "HgN/A
3:50 PM43 °FPartly sunny.7 mph93%29.36 "HgN/A
3:20 PM43 °FBroken clouds.8 mph93%29.36 "HgN/A
2:50 PM43 °FPartly sunny.7 mph93%29.33 "HgN/A
2:20 PM45 °FPartly sunny.7 mph93%29.33 "HgN/A
1:50 PM45 °FPartly sunny.8 mph93%29.33 "HgN/A
1:20 PM45 °FPartly sunny.7 mph93%29.33 "HgN/A
12:50 PM45 °FPartly sunny.8 mph100%29.33 "Hg3 mi
12:20 PM45 °FPartly sunny.7 mph100%29.33 "Hg3 mi
11:50 AM46 °FPartly sunny.6 mph100%29.33 "Hg3 mi
11:20 AM46 °FPartly sunny.5 mph100%29.33 "Hg3 mi
10:50 AM45 °FDrizzle. Fog.5 mph100%29.33 "Hg1 mi
10:20 AM45 °FFog.2 mph100%29.33 "Hg1 mi
9:50 AM43 °FLow clouds.1 mph100%29.33 "Hg5 mi
9:20 AM43 °FLow clouds.No wind100%29.33 "HgN/A
8:50 AM43 °FLow clouds.No wind100%29.30 "HgN/A
8:20 AM41 °FLow clouds.No wind100%29.30 "HgN/A
7:50 AM41 °FFog.No wind100%29.30 "Hg1 mi
Weather by CustomWeather, © 2014

See weather overviewHow to use our weather pages